CZ-6A DEB

Satellite information

Favourite Embed

Satellite Type and Status

DEBRISIN ORBIT

Key statistics

Satellite CZ-6A DEB at a glance.

Uptime

494

Days in orbit

Revolutions

≈ 14.1

Per day

Orbit

LEO

Low Earth Orbit

Inclination

88.9

Latest

Satellite identification and parameters

Extended collection of information and parameters for CZ-6A DEB.

Object identification

Identified? True

Debris? True

Object name: CZ-6A DEB

International designator: 2024-140UZ

Object number (NORAD): 61336

Object ID (CCSDS): 61336

Country: PEOPLES REPUBLIC OF CHINA (PRC)

Current information (Y/N): Y

RCS size: SMALL

Orbital parameters

Period: 102.207 minutes

Inclination: 88.8561 deg

SMA: 7241.247 km

Apoapsis: 942.554 km

Periapsis: 783.671 km

RAAN: 288.8884 deg

Eccentricy: 0.01097072

Argument of periapsis: 111.2882 deg

Mean anomaly: 250.0057 deg

Mean motion: 14.0890814 rev/day

Mean motion (dot): 0.00004845 rev/day2

B* drag term: 0.0026436172 1/REarth

Two-line elements (TLE)

Creation date: Dec. 11, 2025, 3:54 a.m.

Reference frame: TEME

Reference center: EARTH

Epoch: Dec. 10, 2025, 7:53 p.m. UTC

TLE line 0: 0 CZ-6A DEB

TLE line 1: 1 61336U 24140UZ 25344.82851270 .00004845 00000-0 26436-2 0 9995

TLE line 2: 2 61336 88.8561 288.8884 0109707 111.2882 250.0057 14.08908140 65195

Live tracking on map

Real-time ground track for satellite CZ-6A DEB.

In-orbit conjunctions

A list of the most updated potential collisions computed for object CZ-6A DEB.

Target Orbit TCA Probability of collision Miss distance Type
THOR BURNER 2 R/B SSO 2025-10-03 09:36:44 0.0002695213 186.0 (m) ROCKET BODY
FENGYUN 1C DEB SSO 2025-04-18 06:25:46 0.0001007853 558.0 (m) DEBRIS
METEOR 1-13 LEO 2025-04-07 06:07:16 0.000530129 125.0 (m) PAYLOAD
CZ-6A DEB LEO 2024-11-18 21:36:05 0.0001394035 179.0 (m) DEBRIS
SCOUT G-1 DEB LEO 2024-11-09 18:56:10 0.0003410579 263.0 (m) DEBRIS

Associated space launch

18 Low Earth Orbit communication satellites with Ku, Q and V band payloads for the G60 constellation operated by Shanghai Spacecom Satellite Technology (SSST) with funding backed by the Shanghai local government. Initial constellation will consist of 1296 satellites by 2027 with long term plans to expand it to 12000 satellites.

CZ-6A DEB was lifted into orbit during the mission ‘Long March 6A | G60 Polar Group 01’, on board a Long March 6A space rocket.

The launch took place on Aug. 6, 2024, 6:42 a.m. from Launch Complex 9A.

For more information about the launch, click the button.

Launch to space Long March 6A | G60 Polar Group 01
Long March 6A | G60 Polar Group 01

Agency: N/A

Status: Launch Successful

Launch date: Aug. 6, 2024, 6:42 a.m. UTC

Rocket: Long March 6A

Launch pad: Launch Complex 9A

Location: Taiyuan Satellite Launch Center, People's Republic of China

...

Latest news about this satellite

News about space launch
Brightness of first Chinese broadband constellation satellites alarms astronomers

The first satellites of a Chinese broadband constellation are significantly brighter than those of Western systems, posing a new challenge for astronomers.

News about space launch
Chinese rocket stage breaks up into cloud of more than 700 pieces of space debris

HELSINKI — A Chinese Long March 6A rocket’s upper stage has fragmented into a cloud of over 700 pieces of space debris, adding to concerns about long-term orbital safety. China […]

News about space launch
China's Thousand Sails Megaconstellation Kicks Off with Dangerous Debris Field

China's Thousand Sails Megaconstellation Kicks Off with Dangerous Debris Field


Newsletter sign-up

Weekly statistics, charts and insights to help you stay on top of the space industry.